Time,TemperatureF,DewpointF,PressureIn,WindDirection,WindDirectionDegrees,WindSpeedMPH,WindSpeedGustMPH,Humidity,HourlyPrecipIn,Conditions,Clouds,dailyrainin,SoftwareType,DateUTC
2013-11-09 00:12:00,45.0,-99.9,-100.00,ENE,57,0.0,-999.0,-999,-99.99,,,-99.99,,2013-11-09 08:12:00,
2013-11-09 01:12:00,46.0,-99.9,-100.00,ENE,58,1.0,-999.0,-999,-99.99,,,-99.99,,2013-11-09 09:12:00,
2013-11-09 02:13:00,47.0,-99.9,-100.00,ESE,103,3.0,-999.0,-999,-99.99,,,-99.99,,2013-11-09 10:13:00,
2013-11-09 02:20:00,47.0,-99.9,-100.00,ESE,106,6.0,-999.0,-999,-99.99,,,-99.99,,2013-11-09 10:20:00,
2013-11-09 03:12:00,47.0,-99.9,-100.00,ESE,106,6.0,-999.0,-999,-99.99,,,-99.99,,2013-11-09 11:12:00,
2013-11-09 04:12:00,48.0,-99.9,-100.00,ESE,117,2.0,-999.0,-999,-99.99,,,-99.99,,2013-11-09 12:12:00,
2013-11-09 05:11:00,47.0,-99.9,-100.00,NNE,27,3.0,-999.0,-999,-99.99,,,-99.99,,2013-11-09 13:11:00,
2013-11-09 06:12:00,46.0,-99.9,-100.00,NNW,348,3.0,-999.0,-999,-99.99,,,-99.99,,2013-11-09 14:12:00,
2013-11-09 07:11:00,45.0,-99.9,-100.00,ENE,67,7.0,-999.0,-999,-99.99,,,-99.99,,2013-11-09 15:11:00,
2013-11-09 08:13:00,45.0,-99.9,-100.00,ENE,74,7.0,-999.0,-999,-99.99,,,-99.99,,2013-11-09 16:13:00,
2013-11-09 09:13:00,45.0,-99.9,-100.00,NNW,342,6.0,-999.0,-999,-99.99,,,-99.99,,2013-11-09 17:13:00,
2013-11-09 10:12:00,47.0,-99.9,-100.00,NE,51,6.0,-999.0,-999,-99.99,,,-99.99,,2013-11-09 18:12:00,
2013-11-09 11:12:00,47.0,-99.9,-100.00,NNW,348,3.0,-999.0,-999,-99.99,,,-99.99,,2013-11-09 19:12:00,
2013-11-09 12:13:00,48.0,-99.9,-100.00,NNE,29,3.0,-999.0,-999,-99.99,,,-99.99,,2013-11-09 20:13:00,
2013-11-09 13:12:00,48.0,-99.9,-100.00,North,355,2.0,-999.0,-999,-99.99,,,-99.99,,2013-11-09 21:12:00,
2013-11-09 14:13:00,48.0,-99.9,-100.00,NNW,337,3.0,-999.0,-999,-99.99,,,-99.99,,2013-11-09 22:13:00,
2013-11-09 15:13:00,48.0,-99.9,-100.00,NNW,333,5.0,-999.0,-999,-99.99,,,-99.99,,2013-11-09 23:13:00,
2013-11-09 16:12:00,48.0,-99.9,-100.00,NNW,340,2.0,-999.0,-999,-99.99,,,-99.99,,2013-11-10 00:12:00,
2013-11-09 17:12:00,48.0,-99.9,-100.00,NE,46,3.0,-999.0,-999,-99.99,,,-99.99,,2013-11-10 01:12:00,
2013-11-09 18:12:00,49.0,-99.9,-100.00,NNW,343,10.0,-999.0,-999,-99.99,,,-99.99,,2013-11-10 02:12:00,
2013-11-09 19:12:00,49.0,-99.9,-100.00,NNW,344,5.0,-999.0,-999,-99.99,,,-99.99,,2013-11-10 03:12:00,
2013-11-09 20:03:00,-999.0,-99.9,-100.00,North,11,2.0,-999.0,-999,-99.99,,,-99.99,,2013-11-10 04:03:00,
2013-11-09 20:14:00,48.0,-99.9,-100.00,North,11,2.0,-999.0,-999,-99.99,,,-99.99,,2013-11-10 04:14:00,
2013-11-09 21:13:00,47.0,-99.9,-100.00,NNW,334,2.0,-999.0,-999,-99.99,,,-99.99,,2013-11-10 05:13:00,
2013-11-09 22:13:00,47.0,-99.9,-100.00,NE,35,0.0,-999.0,-999,-99.99,,,-99.99,,2013-11-10 06:13:00,
2013-11-09 23:12:00,47.0,-99.9,-100.00,North,0,0.0,-999.0,-999,-99.99,,,-99.99,,2013-11-10 07:12:00,